Flag for Madagascar Weather past 2 weeks in Antsirabe, Madagascar

61 °F

Passing clouds.

Feels Like: 61 °F
Forecast: 49 / 80 °F
Wind: No wind

Location: Antananarivo / Ivato

Current Time: Oct 4, 2015 at 10:54:56 PM

Latest Report: Oct 4, 2015 at 10:30 PM

Visibility: N/A

Pressure: 30.36 "Hg (25.41 "Hg at 1507m altitude)

Humidity: 100%

Dew point: 61 °F

Location of AntsirabeLocation

Historic Weather in Antsirabe — Graph


Antsirabe temperature yesterday

Maximum temperature yesterday: 82 °F (at 2:00 PM)
Minimum temperature yesterday: 54 °F (at 5:30 AM)
Average temperature yesterday: 67 °F

Past Weeks' High & Low Weather Summary

High82 °F (Sep 29, 12:30 PM)100% (Sep 19, 10:00 PM)30.36 "Hg (Sep 19, 10:00 PM)
Low52 °F (Sep 20, 5:30 AM)40% (Oct 3, 2:30 PM)30.04 "Hg (Sep 29, 2:30 PM)
Average64 °F84%30.24 "Hg
* Reported Sep 19 10:00 PM — Oct 4 10:00 PM, Antsirabe, Weather by CustomWeather, © 2015

Note: Actual official high and low records may vary slightly from our data, if they occured in-between our weather recording intervals... More about our weather records


Antsirabe weather history for previous 24 hours

Time TempWeatherWind HumidityBarometerVisibility
10:00 PM
Sun, Oct 4
61 °FPassing clouds.8 mph100%30.36 "HgN/A
9:30 PM61 °FPassing clouds.8 mph100%30.36 "HgN/A
9:00 PM63 °FPassing clouds.9 mph100%30.36 "HgN/A
8:30 PM63 °FPassing clouds.9 mph100%30.36 "HgN/A
8:00 PM64 °FPassing clouds.12 mph100%30.36 "HgN/A
7:30 PM64 °FPassing clouds.10 mph100%30.36 "HgN/A
7:00 PM66 °FPassing clouds.10 mph94%30.33 "HgN/A
6:30 PM68 °FPassing clouds.12 mph88%30.33 "HgN/A
6:00 PM68 °FPassing clouds.13 mph83%30.30 "HgN/A
5:30 PM72 °FPassing clouds.15 mph73%30.30 "HgN/A
5:00 PM75 °FPassing clouds.15 mph65%30.27 "HgN/A
4:30 PM77 °FPassing clouds.15 mph54%30.27 "HgN/A
4:00 PM79 °FScattered clouds.13 mph54%30.27 "HgN/A
3:30 PM81 °FScattered clouds.9 mph51%30.27 "HgN/A
3:00 PM81 °FScattered clouds.7 mph51%30.27 "HgN/A
2:30 PM81 °FScattered clouds.8 mph51%30.27 "HgN/A
2:00 PM79 °FScattered clouds.7 mph54%30.27 "HgN/A
1:30 PM81 °FScattered clouds.12 mph51%30.30 "HgN/A
1:00 PM79 °FScattered clouds.12 mph54%30.30 "HgN/A
12:30 PM75 °FScattered clouds.12 mph61%30.30 "HgN/A
12:00 PM77 °FScattered clouds.9 mph65%30.33 "HgN/A
11:30 AM77 °FScattered clouds.14 mph61%30.33 "HgN/A
11:00 AM75 °FScattered clouds.10 mph69%30.33 "HgN/A
10:30 AM73 °FScattered clouds.8 mph69%30.33 "HgN/A
10:00 AM73 °FScattered clouds.10 mph74%30.33 "HgN/A
9:30 AM73 °FScattered clouds.8 mph74%30.36 "HgN/A
9:00 AM68 °FScattered clouds.8 mph88%30.36 "HgN/A
8:30 AM66 °FPartly sunny.7 mph94%30.36 "HgN/A
8:00 AM63 °FPartly sunny.8 mph100%30.36 "HgN/A
7:00 AM61 °FPartly sunny.No wind100%30.33 "HgN/A
6:30 AM59 °FPartly sunny.7 mph100%30.30 "HgN/A
6:00 AM59 °FPartly sunny.6 mph100%30.30 "HgN/A
5:30 AM59 °FPartly sunny.9 mph100%30.30 "HgN/A
5:00 AM59 °FPassing clouds.8 mph100%30.30 "HgN/A
4:30 AM59 °FPassing clouds.8 mph100%30.27 "HgN/A
4:00 AM59 °FPassing clouds.No wind100%30.27 "HgN/A
3:30 AM59 °FPassing clouds.No wind100%30.27 "HgN/A
3:00 AM59 °FPassing clouds.No wind100%30.27 "HgN/A
2:30 AM59 °FPassing clouds.No wind100%30.27 "HgN/A
2:00 AM59 °FPassing clouds.No wind100%30.27 "HgN/A
1:30 AM59 °FPassing clouds.9 mph100%30.30 "HgN/A
12:30 AM59 °FPassing clouds.No wind100%30.30 "HgN/A
12:00 AM59 °FPassing clouds.2 mph100%30.33 "HgN/A
11:30 PM
Sat, Oct 3
59 °FPassing clouds.7 mph100%30.33 "HgN/A
11:00 PM59 °FPassing clouds.8 mph100%30.33 "HgN/A
10:30 PM59 °FPassing clouds.8 mph100%30.33 "HgN/A
10:00 PM61 °FPassing clouds.8 mph94%30.33 "HgN/A
Weather by CustomWeather, © 2015

See weather overviewHow to use our weather pages